HB9EYW-6 Weather Reports


Display with metric or nautical units.
time (UTC)temp
F
wind
direction
speed
MPH
gust
MPH
rain 1hr
in
rain 24hr
in
rain mn
in
humidity
%
barometer
mb
20260506155505 54 135 0.0 2.0 0.00 0.27 0.27 78
20260506155005 54 133 0.0 2.0 0.00 0.27 0.27 77
20260506154505 54 130 0.0 2.0 0.00 0.27 0.27 77
20260506154005 54 172 0.0 2.0 0.00 0.27 0.27 77
20260506153505 54 160 0.0 2.0 0.00 0.27 0.27 77
20260506153005 54 139 0.0 2.0 0.00 0.27 0.27 77
20260506152505 54 143 0.0 2.0 0.00 0.27 0.27 77
20260506152005 54 158 0.0 2.0 0.00 0.27 0.27 77
20260506151505 54 153 0.0 2.0 0.00 0.27 0.27 77
20260506151005 54 96 0.0 2.0 0.00 0.27 0.27 77
20260506150505 54 150 0.0 2.0 0.00 0.27 0.27 78
20260506150005 54 152 0.0 3.0 0.00 0.27 0.27 78
20260506145505 54 290 1.0 4.0 0.00 0.27 0.27 78
20260506145005 54 264 0.0 4.0 0.00 0.27 0.27 78
20260506144505 55 165 1.0 2.0 0.00 0.27 0.27 79
20260506144005 55 131 0.0 2.0 0.00 0.27 0.27 79
20260506143505 54 143 0.0 2.0 0.00 0.27 0.27 79
20260506143005 54 202 0.0 2.0 0.00 0.27 0.27 79
20260506142505 54 172 0.0 2.0 0.00 0.27 0.27 80
20260506142005 54 152 0.0 2.0 0.01 0.27 0.27 81
20260506141505 54 147 0.0 2.0 0.01 0.27 0.27 81
20260506141005 54 140 0.0 2.0 0.01 0.27 0.27 81
20260506140505 54 143 0.0 2.0 0.01 0.27 0.27 81
20260506140005 54 149 0.0 3.0 0.01 0.27 0.27 81
20260506135505 53 86 0.0 3.0 0.01 0.27 0.27 82
20260506135005 53 26 0.0 3.0 0.01 0.27 0.27 82
20260506134505 53 243 0.0 3.0 0.01 0.27 0.27 82
20260506134005 53 211 1.0 3.0 0.01 0.27 0.27 82
20260506133505 53 201 1.0 2.0 0.02 0.27 0.27 82
20260506133005 52 163 0.0 4.0 0.02 0.27 0.27 82
20260506132505 52 100 1.0 4.0 0.02 0.27 0.27 81
20260506132005 52 85 1.0 4.0 0.01 0.26 0.26 81
20260506131505 52 215 2.0 6.0 0.02 0.26 0.26 81
20260506131005 52 260 2.0 6.0 0.02 0.26 0.26 82
20260506130505 52 264 1.0 6.0 0.04 0.26 0.26 83
20260506130005 52 82 1.0 8.0 0.04 0.26 0.26 83
20260506125505 52 167 2.0 8.0 0.04 0.26 0.26 83
20260506125005 53 215 2.0 8.0 0.04 0.26 0.26 85
20260506124505 53 257 2.0 3.0 0.05 0.26 0.26 85
20260506124005 53 269 0.0 4.0 0.05 0.26 0.26 85
20260506123505 53 308 1.0 7.0 0.07 0.25 0.25 85
20260506123005 53 288 2.0 7.0 0.14 0.25 0.25 86
20260506122505 54 229 1.0 2.0 0.17 0.25 0.25 87
20260506122005 54 238 0.0 2.0 0.18 0.25 0.25 86
20260506121505 54 205 0.0 2.0 0.17 0.24 0.24 86
20260506121005 53 223 0.0 2.0 0.18 0.24 0.24 85
20260506120505 53 256 0.0 2.0 0.18 0.22 0.22 83
20260506120005 53 307 0.0 4.0 0.18 0.22 0.22 83
20260506115505 53 324 1.0 4.0 0.18 0.22 0.22 83
20260506115005 53 289 2.0 4.0 0.19 0.22 0.22 82
20260506114505 55 174 1.0 4.0 0.18 0.21 0.21 81
20260506114005 54 172 2.0 7.0 0.19 0.21 0.21 79
20260506113505 55 204 2.0 7.0 0.15 0.18 0.18 79
20260506113005 56 151 1.0 4.0 0.08 0.11 0.11 79
20260506112608 56 133 1.0 2.0 0.07 0.08 0.08 78
20260506112005 56 134 0.0 2.0 0.06 0.07 0.07 77
20260506111505 56 175 0.0 2.0 0.07 0.07 0.07 76
20260506111005 56 184 0.0 2.0 0.06 0.06 0.06 75
20260506110505 57 180 0.0 2.0 0.05 0.05 0.05 74
20260506110005 57 202 0.0 2.0 0.05 0.05 0.05 74
20260506105505 57 203 0.0 2.0 0.05 0.05 0.05 73
20260506105005 57 183 0.0 2.0 0.04 0.04 0.04 73
20260506104505 57 241 0.0 1.0 0.04 0.04 0.04 72
20260506104005 57 165 0.0 1.0 0.02 0.02 0.02 72
20260506103505 57 125 0.0 2.0 0.02 0.02 0.02 71
20260506103005 57 126 0.0 2.0 0.02 0.02 0.02 70
20260506102505 57 142 0.0 2.0 0.01 0.01 0.01 69
20260506102005 57 128 0.0 2.0 0.01 0.01 0.01 68
20260506101505 58 114 0.0 2.0 0.00 0.00 0.00 67
20260506101005 58 315 0.0 2.0 0.00 0.00 0.00 66
20260506100505 58 334 0.0 2.0 0.00 0.00 0.00 65
20260506100005 58 142 0.0 2.0 0.00 0.00 0.00 65
20260506095505 58 161 0.0 3.0 0.00 0.00 0.00 65
20260506095005 59 159 1.0 3.0 0.00 0.00 0.00 65
20260506094505 58 307 0.0 2.0 0.00 0.00 0.00 65
20260506094005 58 202 0.0 2.0 0.00 0.00 0.00 65
20260506093505 58 226 0.0 2.0 0.00 0.00 0.00 65
20260506093005 58 278 0.0 2.0 0.00 0.00 0.00 64
20260506092505 58 281 1.0 2.0 0.00 0.00 0.00 63
20260506092005 58 267 0.0 2.0 0.00 0.00 0.00 62
20260506091505 58 159 0.0 2.0 0.00 0.00 0.00 62
20260506091005 58 180 1.0 2.0 0.00 0.00 0.00 62
20260506090505 58 169 0.0 2.0 0.00 0.00 0.00 61
20260506090005 58 197 0.0 2.0 0.00 0.00 0.00 61
20260506085505 59 206 0.0 2.0 0.00 0.00 0.00 61
20260506085005 59 122 0.0 2.0 0.00 0.00 0.00 61
20260506084505 59 129 0.0 2.0 0.00 0.00 0.00 60
20260506084005 60 144 0.0 2.0 0.00 0.00 0.00 61
20260506083505 60 158 0.0 1.0 0.00 0.00 0.00 63
20260506083005 60 147 0.0 2.0 0.00 0.00 0.00 63
20260506082505 60 150 0.0 2.0 0.00 0.00 0.00 64
20260506082005 59 151 0.0 2.0 0.00 0.00 0.00 65
20260506081505 59 182 1.0 2.0 0.00 0.00 0.00 66
20260506081005 59 246 0.0 2.0 0.00 0.00 0.00 66
20260506080505 59 14 0.0 4.0 0.00 0.00 0.00 66
20260506073505 58 131 0.0 2.0 0.00 0.00 0.00 70
20260506073005 58 130 0.0 2.0 0.00 0.00 0.00 71
20260506072505 58 133 0.0 2.0 0.00 0.01 0.00 72
20260506072005 58 131 1.0 2.0 0.00 0.01 0.00 73
20260506071505 57 108 0.0 2.0 0.00 0.01 0.00 74
20260506071005 56 97 0.0 2.0 0.00 0.01 0.00 74
20260506070505 55 111 0.0 2.0 0.00 0.01 0.00 75
20260506062505 54 135 1.0 4.0 0.00 0.01 0.00 80
20260506062005 54 131 1.0 3.0 0.00 0.01 0.00 81
20260506061505 54 138 0.0 4.0 0.00 0.01 0.00 81
20260506061005 54 142 1.0 4.0 0.00 0.01 0.00 82
20260506060505 53 134 0.0 2.0 0.00 0.01 0.00 82
20260506051005 52 0 0.0 0.0 0.00 0.01 0.00 82
20260506050505 52 90 0.0 1.0 0.00 0.01 0.00 82
20260506045005 52 152 1.0 2.0 0.00 0.01 0.00 82
20260506044505 52 225 0.0 1.0 0.00 0.01 0.00 82
20260506044005 52 225 0.0 1.0 0.00 0.01 0.00 82
20260506043505 52 225 0.0 1.0 0.00 0.01 0.00 82
20260506043005 52 135 0.0 2.0 0.00 0.01 0.00 82
20260506042505 52 135 0.0 2.0 0.00 0.01 0.00 82
20260506042005 52 136 0.0 2.0 0.00 0.01 0.00 82
20260506041505 52 140 0.0 2.0 0.00 0.01 0.00 82
20260506041005 52 137 0.0 2.0 0.00 0.01 0.00 82
20260506040505 52 135 1.0 2.0 0.00 0.01 0.00 82
20260506040005 52 135 1.0 2.0 0.00 0.01 0.00 82
20260506035505 52 135 0.0 2.0 0.00 0.01 0.00 82
20260506035005 52 135 0.0 2.0 0.00 0.01 0.00 82
20260506034505 52 0 0.0 0.0 0.00 0.01 0.00 82
20260506034005 52 125 0.0 3.0 0.00 0.01 0.00 81
20260506033505 52 131 0.0 3.0 0.00 0.01 0.00 81
20260506033005 52 135 2.0 2.0 0.00 0.01 0.00 81
20260506032505 52 135 0.0 1.0 0.00 0.01 0.00 81
20260506032005 52 315 0.0 1.0 0.00 0.01 0.00 81
20260506031505 52 135 0.0 2.0 0.00 0.01 0.00 81
20260506031005 52 135 0.0 2.0 0.00 0.01 0.00 81
20260506030505 52 133 1.0 3.0 0.00 0.01 0.00 81
20260506030005 52 123 1.0 3.0 0.00 0.01 0.00 81
20260506025505 52 126 2.0 3.0 0.00 0.01 0.00 80
20260506025005 52 130 0.0 3.0 0.00 0.01 0.00 80
20260506024505 52 136 1.0 2.0 0.00 0.01 0.00 79
20260506024005 52 161 0.0 2.0 0.00 0.01 0.00 79
20260506023504 53 125 0.0 2.0 0.00 0.01 0.00 79
20260506023004 53 104 1.0 4.0 0.00 0.01 0.00 78
20260506022505 53 116 0.0 4.0 0.00 0.01 0.00 78
20260506022004 53 118 2.0 4.0 0.00 0.01 0.00 78
20260506021504 53 132 0.0 2.0 0.00 0.01 0.00 77
20260506021004 53 0 0.0 0.0 0.00 0.01 0.00 77
20260506020504 53 109 0.0 2.0 0.00 0.01 0.00 77
20260506020005 53 130 0.0 2.0 0.00 0.01 0.00 77
20260506015505 53 193 0.0 1.0 0.00 0.01 0.00 76
20260506015004 54 203 0.0 2.0 0.00 0.01 0.00 76
20260506014504 54 166 0.0 2.0 0.00 0.01 0.00 76
20260506014005 54 135 0.0 2.0 0.00 0.01 0.00 76
20260506013504 54 135 0.0 1.0 0.00 0.01 0.00 75
20260506013005 54 135 0.0 1.0 0.00 0.01 0.00 75
20260506012504 54 146 0.0 2.0 0.00 0.01 0.00 75
20260506012004 54 148 0.0 2.0 0.00 0.01 0.00 75
20260506011504 54 106 0.0 2.0 0.00 0.01 0.00 75
20260506011004 54 97 0.0 2.0 0.00 0.01 0.00 75
20260506010504 55 107 1.0 4.0 0.00 0.01 0.00 75
20260506010004 55 121 1.0 4.0 0.00 0.01 0.00 75
20260506005504 55 136 0.0 2.0 0.00 0.01 0.00 76
20260506005004 55 141 0.0 2.0 0.00 0.01 0.00 76
20260506004505 55 140 0.0 2.0 0.00 0.01 0.00 76
20260506004004 55 140 0.0 2.0 0.00 0.01 0.00 76
20260506003504 55 143 0.0 2.0 0.00 0.01 0.00 76
20260506003004 55 135 0.0 2.0 0.00 0.01 0.00 76
20260506002504 55 135 0.0 2.0 0.00 0.01 0.00 75
20260506002004 55 138 0.0 2.0 0.00 0.01 0.00 75
20260506001504 55 142 0.0 2.0 0.00 0.01 0.00 75
20260506001004 55 145 0.0 2.0 0.00 0.01 0.00 75
20260506000504 55 135 0.0 1.0 0.00 0.01 0.00 75
20260506000005 55 132 0.0 3.0 0.00 0.01 0.00 75
20260505235504 55 133 0.0 3.0 0.00 0.01 0.00 75
20260505235004 55 149 0.0 3.0 0.00 0.01 0.00 75
20260505234504 55 159 0.0 3.0 0.00 0.01 0.00 75
20260505234004 55 146 0.0 2.0 0.00 0.01 0.00 75
20260505233504 55 126 0.0 4.0 0.00 0.01 0.00 75
20260505233004 55 129 1.0 4.0 0.00 0.01 0.00 75
20260505232504 55 153 0.0 2.0 0.00 0.01 0.00 75
20260505232004 55 157 0.0 2.0 0.00 0.01 0.00 75
20260505231504 56 175 0.0 2.0 0.00 0.01 0.00 75
20260505231004 56 183 0.0 2.0 0.00 0.01 0.00 75
20260505230504 56 180 0.0 1.0 0.00 0.01 0.00 74
20260505230004 56 163 0.0 2.0 0.00 0.01 0.00 74
20260505225504 56 139 0.0 3.0 0.00 0.01 0.00 74
20260505225004 56 139 0.0 4.0 0.00 0.01 0.00 75
20260505224504 56 138 1.0 4.0 0.00 0.01 0.00 75
20260505224004 56 133 2.0 4.0 0.00 0.01 0.00 75
20260505223504 56 158 0.0 1.0 0.00 0.01 0.00 75
20260505223004 56 164 0.0 2.0 0.00 0.01 0.00 75
20260505222504 56 152 0.0 2.0 0.00 0.01 0.00 75
20260505222004 56 149 0.0 3.0 0.00 0.01 0.00 75
20260505221504 56 137 0.0 3.0 0.00 0.01 0.00 76
20260505221004 56 132 0.0 2.0 0.00 0.01 0.00 76
20260505220504 56 142 1.0 2.0 0.00 0.01 0.00 76
20260505220005 56 148 1.0 2.0 0.00 0.01 0.00 76
20260505215504 56 143 0.0 2.0 0.00 0.01 0.01 76
20260505215004 56 127 0.0 3.0 0.00 0.01 0.01 77
20260505214504 56 117 1.0 4.0 0.00 0.01 0.01 76
20260505214004 56 126 1.0 4.0 0.00 0.01 0.01 76
20260505213504 56 135 1.0 3.0 0.00 0.01 0.01 76
20260505213004 56 139 0.0 4.0 0.00 0.01 0.01 75
20260505212504 56 117 1.0 4.0 0.00 0.01 0.01 75
20260505212004 56 109 2.0 4.0 0.00 0.01 0.01 75
20260505211504 56 131 0.0 3.0 0.00 0.01 0.01 74
20260505211004 56 135 0.0 2.0 0.00 0.01 0.01 73
20260505210504 56 139 0.0 1.0 0.00 0.01 0.01 72
20260505210004 56 144 0.0 2.0 0.00 0.01 0.01 72
20260505205504 56 145 0.0 2.0 0.00 0.01 0.01 72
20260505205004 56 0 0.0 0.0 0.00 0.01 0.01 71
20260505204504 56 0 0.0 0.0 0.00 0.01 0.01 70
20260505204004 56 0 0.0 0.0 0.00 0.01 0.01 70
20260505203504 56 180 0.0 1.0 0.00 0.01 0.01 70
20260505203004 56 220 0.0 1.0 0.00 0.01 0.01 69
20260505202504 56 279 0.0 1.0 0.00 0.01 0.01 68
20260505202004 57 271 0.0 2.0 0.00 0.01 0.01 68
20260505201504 57 133 0.0 2.0 0.00 0.01 0.01 68
20260505201004 57 135 0.0 2.0 0.00 0.01 0.01 68
20260505200504 57 0 0.0 0.0 0.00 0.01 0.01 66
20260505200004 57 135 0.0 1.0 0.00 0.01 0.01 66
20260505195504 58 135 0.0 1.0 0.00 0.01 0.01 66
20260505195004 58 135 0.0 2.0 0.00 0.01 0.01 65
20260505194504 58 135 0.0 2.0 0.00 0.01 0.01 64
20260505194004 58 135 0.0 2.0 0.00 0.01 0.01 63
20260505193504 58 135 0.0 1.0 0.00 0.01 0.01 61
20260505193004 58 170 0.0 1.0 0.00 0.01 0.01 60
20260505192504 58 177 0.0 2.0 0.00 0.01 0.01 60
20260505192004 59 175 0.0 2.0 0.00 0.01 0.01 59
20260505191504 59 187 0.0 2.0 0.00 0.01 0.01 59
20260505191004 59 214 0.0 1.0 0.00 0.01 0.01 59
20260505190504 60 227 0.0 1.0 0.00 0.01 0.01 59
20260505190004 60 215 0.0 2.0 0.00 0.01 0.01 59
20260505185504 60 145 0.0 2.0 0.00 0.01 0.01 59
20260505185004 60 125 0.0 2.0 0.00 0.01 0.01 58
20260505184504 60 148 0.0 2.0 0.00 0.01 0.01 57
20260505184004 61 145 0.0 2.0 0.00 0.01 0.01 55
20260505183504 62 133 0.0 2.0 0.00 0.01 0.01 53
20260505183005 62 120 0.0 2.0 0.00 0.01 0.01 50
20260505182504 63 131 0.0 2.0 0.00 0.01 0.01 49
20260505182004 65 147 0.0 2.0 0.00 0.01 0.01 48
20260505181504 65 115 0.0 2.0 0.00 0.01 0.01 49
20260505181004 65 0 0.0 0.0 0.00 0.01 0.01 52
20260505180504 63 148 0.0 1.0 0.00 0.01 0.01 54
20260505180004 63 219 0.0 2.0 0.00 0.01 0.01 54
20260505175504 62 238 0.0 2.0 0.00 0.01 0.01 54
20260505175004 62 255 0.0 3.0 0.00 0.01 0.01 54
20260505174504 62 277 0.0 4.0 0.00 0.01 0.01 53
20260505174004 62 261 2.0 4.0 0.00 0.01 0.01 52
20260505173504 63 208 1.0 4.0 0.00 0.01 0.01 55
20260505173004 64 242 1.0 3.0 0.00 0.01 0.01 57
20260505172504 64 260 0.0 2.0 0.00 0.01 0.01 57
20260505172004 64 169 0.0 1.0 0.00 0.01 0.01 57
20260505171504 64 0 0.0 0.0 0.00 0.02 0.01 57
20260505171004 64 0 0.0 0.0 0.00 0.02 0.01 56
20260505170504 65 153 0.0 1.0 0.00 0.02 0.01 55
20260505170004 65 137 0.0 2.0 0.00 0.02 0.01 55
20260505165504 65 136 0.0 2.0 0.00 0.02 0.01 54
20260505165004 66 135 0.0 1.0 0.00 0.02 0.01 54
20260505164504 66 90 0.0 1.0 0.00 0.02 0.01 53
20260505164004 66 224 0.0 2.0 0.00 0.04 0.01 52
20260505163504 66 214 0.0 2.0 0.00 0.04 0.01 51
20260505163004 67 171 0.0 1.0 0.00 0.04 0.01 50
20260505162504 67 195 0.0 2.0 0.00 0.05 0.01 50
20260505162004 68 195 0.0 2.0 0.00 0.06 0.01 49
20260505161504 68 180 0.0 2.0 0.00 0.06 0.01 49
20260505161004 68 180 0.0 2.0 0.00 0.07 0.01 47
20260505160504 68 195 0.0 2.0 0.00 0.08 0.01 49